sat.trackr.live / text

‹ back to catalog

STARLINK-4453

NORAD 53497 · 2022-099AJ

PAYLOAD ACTIVE UNKNOWN

§ Identity

Operator
Country
US
Launch date
2022-08-12
Launch site
AFWTR
Launch vehicle
Mass (kg)
RCS (m²)

Purposes: comms

External: N2YO · Heavens-Above · Gunter

§ Orbital elements

Epoch: 2026-05-24T21:45:56.179008Z

Period
95.64 min
Inclination
97.4474°
Eccentricity
0.0001045
Mean motion
15.05644797 rev/d
Perigee alt
548.8 km
Apogee alt
550.3 km
Semi-major
6,927.7 km
B*
1.9146e-5
RAAN
264.8139°
Arg perigee
136.6953°
Mean anomaly
223.4357°
Rev number
20,744

§ Raw data

STARLINK-44531 53497U 22099AJ  26144.90690022  .00000218  00000+0  19146-4 0  99902 53497  97.4474 264.8139 0001045 136.6953 223.4357 15.05644797207442

JSON: /api/v1/satellites/53497 · /tle

For live sub-satellite position, see the globe view (requires WebGL).

§ Visibility from observer

Set your observer location to see the next 7 days of passes ≥ 10°. The values pass through the URL so the page stays shareable.

No JS? Fill the form by hand. The geolocation button needs JavaScript.